Location: Waco, TX
(31.5480°N, 97.1670°W)
Time: 13:49:26

ISS - Pass Details

Date: 18 March 2018
Orbit: 403 x 406 km, 51.6° (Epoch: 23 March)

Event Time Altitude Azimuth Distance (km) Brightness Sun altitude
Rises 21:48:33 0° 192° (SSW) 2,306 - -28.0°
Reaches altitude 10° 21:51:03 10° 173° (S) 1,452 - -28.5°
Maximum altitude 21:53:21 18° 127° (SE) 1,067 - -29.0°
Drops below altitude 10° 21:55:40 10° 82° (E) 1,459 - -29.4°
Sets 21:58:11 0° 63° (ENE) 2,322 - -29.9°
